Skip to main content Skip to accessibility
This website is not compatible with your web browser. You should install a newer browser. If you live in Jersey and need help upgrading call the States of Jersey web team on 440099.
Homegov.je

L'înformâtion et les sèrvices publyis pouor I'Île dé Jèrri

  • Choose the service you want to log in to:

  • gov.je

    Update your notification preferences

  • one.gov.je

    Access government and parish services

  • CAESAR

    Clear goods through customs or claim relief

  • Talentlink

    View or update your States of Jersey job application

CI Airfield TAFs

JERSEY - EGJJ

EGJJ 161957Z 1621/1706 02004KT CAVOK PROB40 TEMPO 1700/1706 9000 PROB30 TEMPO 1703/1706 4000 BR BKN002=

GUERNSEY - EGJB

EGJB 161957Z 1621/1706 36004KT CAVOK PROB40 TEMPO 1700/1706 9000 PROB30 TEMPO 1703/1706 4000 BR BKN002=

ALDERNEY - EGJA

EGJA 161926Z 1619/1700 CNL=

Back to top
rating button